CWAE

Whistler Airport

British Columbia, Canada
Issued Wind Visibility Ceiling Temperature Dew Point Humidity Barometer
Sep-25
01:00 UTC
180°
6 KTS
15 miles Broken
12,000' AGL
15° C
59° F
C
46° F
63% 30.08" Hg
1018.8 hPa
VFR
Sep-25
00:00 UTC
180°
7 KTS
15 miles Broken
11,000' AGL
16° C
61° F
C
45° F
55% 30.07" Hg
1018.5 hPa
VFR
Sep-24
23:00 UTC
180°
6 KTS
15 miles Broken
11,000' AGL
16° C
61° F
C
45° F
55% 30.08" Hg
1018.7 hPa
VFR
Sep-24
22:00 UTC
180°
6 KTS
15 miles Broken
16,000' AGL
16° C
61° F
C
45° F
55% 30.09" Hg
1019.2 hPa
VFR
Sep-24
21:00 UTC
180°
6 KTS
15 miles Broken
15,000' AGL
16° C
61° F
C
45° F
55% 30.1" Hg
1019.6 hPa
VFR
Sep-24
20:00 UTC
180°
5 KTS
15 miles Overcast
15,000' AGL
15° C
59° F
C
45° F
59% 30.12" Hg
1020.3 hPa
VFR
Sep-24
19:00 UTC
180°
2 KTS
15 miles Overcast
12,000' AGL
15° C
59° F
C
45° F
59% 30.12" Hg
1020.2 hPa
VFR
Sep-24
18:00 UTC
15 miles Broken
12,000' AGL
14° C
57° F
C
46° F
67% 30.14" Hg
1021 hPa
VFR
Sep-24
17:00 UTC
15 miles Overcast
13,000' AGL
12° C
54° F
C
46° F
77% 30.15" Hg
1021.3 hPa
VFR
Sep-24
16:00 UTC
15 miles Broken
14,000' AGL
C
48° F
C
46° F
94% 30.15" Hg
1021.4 hPa
VFR
Sep-24
15:00 UTC
15 miles Overcast
9,000' AGL
C
46° F
C
45° F
93% 30.16" Hg
1021.8 hPa
VFR
Sep-24
14:00 UTC
15 miles Overcast
11,000' AGL
C
45° F
C
45° F
100% 30.14" Hg
1021.1 hPa
VFR
Sep-24
13:00 UTC
15 miles Overcast
11,000' AGL
C
46° F
C
45° F
93% 30.14" Hg
1021 hPa
VFR